This is the latest recevied weather packets stored in our database for station/object DO1BDB-12. If no packets are shown the sender has not sent any weather packets the latest 10 day(s).
| Time | Temp. | Humidity | Pressure | Rain* | Wind** | Luminosity | Snow |
|---|---|---|---|---|---|---|---|
| 1777212275 | 17.22° C | 22% | 102.5 hPa | - | - | - | - |
| 1777212209 | 17.22° C | 21% | 102.5 hPa | - | - | - | - |
| 1777212143 | 16.67° C | 24% | 102.5 hPa | - | - | - | - |
| 1777212077 | 17.22° C | 22% | 102.5 hPa | - | - | - | - |
| 1777212011 | 17.22° C | 22% | 102.5 hPa | - | - | - | - |
| 1777211945 | 17.22° C | 23% | 102.5 hPa | - | - | - | - |
| 1777211880 | 16.67° C | 25% | 102.5 hPa | - | - | - | - |
| 1777211814 | 17.22° C | 23% | 102.5 hPa | - | - | - | - |
| 1777211748 | 17.78° C | 23% | 102.5 hPa | - | - | - | - |
| 1777211682 | 17.22° C | 21% | 102.5 hPa | - | - | - | - |
| 1777211616 | 16.11° C | 25% | 102.5 hPa | - | - | - | - |
| 1777211550 | 17.22° C | 25% | 102.5 hPa | - | - | - | - |
| 1777211485 | 16.11° C | 26% | 102.5 hPa | - | - | - | - |
| 1777211419 | 15.56° C | 23% | 102.5 hPa | - | - | - | - |
| 1777211353 | 16.11° C | 23% | 102.5 hPa | - | - | - | - |
| 1777211287 | 16.67° C | 24% | 102.5 hPa | - | - | - | - |
| 1777211222 | 17.22° C | 22% | 102.5 hPa | - | - | - | - |
| 1777211155 | 17.22° C | 22% | 102.5 hPa | - | - | - | - |
| 1777211090 | 16.67° C | 22% | 102.5 hPa | - | - | - | - |
| 1777211024 | 16.67° C | 22% | 102.5 hPa | - | - | - | - |
| 1777210958 | 16.67° C | 25% | 102.5 hPa | - | - | - | - |
| 1777210892 | 17.22° C | 22% | 102.5 hPa | - | - | - | - |
| 1777210826 | 16.67° C | 23% | 102.5 hPa | - | - | - | - |
| 1777210760 | 17.22° C | 24% | 102.5 hPa | - | - | - | - |
| 1777210695 | 16.67° C | 24% | 102.5 hPa | - | - | - | - |
* Rain since midnight (hover to see other rain measurements)
** Current wind speed in m/s (hover to see current wind gust speed)